When you browse on this site, cookies collect data to enhance your experience and personalize the content and advertising you see.
Visit our Privacy Policy to learn more. By continuing to use the site, you agree to this use of cookies and data.
  • en France
  • Liste des pays
  • À 7 jours
  • Température de l'eau
  • Carte satellitaire
  • Carte météo
  • Widgets météo
  • user-avatar
    Se connecter

    Météo par heure à Berat

    Ce jour, 10 Décembre, Lundi

    Heure Température Précipitation Vent Pression Humidité
    00:00 +9°C° 0.7 mm 3 m/s 738 mmHg 87%
    01:00 +8°C° 0 mm 4 m/s 737 mmHg 86%
    02:00 +8°C° 1 mm 4 m/s 737 mmHg 89%
    03:00 +9°C° 1 mm 3 m/s 736 mmHg 91%
    04:00 +9°C° 1 mm 3 m/s 736 mmHg 93%
    05:00 +9°C° 0.2 mm 3 m/s 736 mmHg 93%
    06:00 +8°C° 0.2 mm 3 m/s 737 mmHg 93%
    07:00 +8°C° 0 mm 3 m/s 737 mmHg 92%
    08:00 +9°C° 0.1 mm 3 m/s 738 mmHg 87%
    09:00 +10°C° 0.1 mm 3 m/s 738 mmHg 81%
    10:00 +11°C° 0.1 mm 4 m/s 739 mmHg 75%
    11:00 +11°C° 0 mm 4 m/s 739 mmHg 70%
    12:00 +12°C° 0 mm 3 m/s 739 mmHg 66%
    13:00 +12°C° 0 mm 3 m/s 739 mmHg 61%
    14:00 +11°C° 0.1 mm 3 m/s 739 mmHg 65%
    15:00 +10°C° 0.1 mm 3 m/s 739 mmHg 69%
    16:00 +9°C° 0.1 mm 3 m/s 740 mmHg 73%
    17:00 +9°C° 0 mm 2 m/s 740 mmHg 76%
    18:00 +8°C° 0 mm 2 m/s 740 mmHg 78%
    19:00 +7°C° 0 mm 2 m/s 741 mmHg 80%
    20:00 +7°C° 0 mm 2 m/s 741 mmHg 80%
    21:00 +6°C° 0 mm 2 m/s 741 mmHg 80%
    22:00 +6°C° 0 mm 2 m/s 742 mmHg 79%
    23:00 +6°C° 0 mm 2 m/s 742 mmHg 79%

    Demain, 11 Décembre, Mardi

    Heure Température Précipitation Vent Pression Humidité
    00:00 +6°C° 0 mm 2 m/s 742 mmHg 79%
    01:00 +5°C° 0 mm 2 m/s 742 mmHg 79%
    02:00 +5°C° 0 mm 2 m/s 742 mmHg 80%
    03:00 +5°C° 0 mm 2 m/s 742 mmHg 80%
    04:00 +5°C° 0 mm 2 m/s 742 mmHg 80%
    05:00 +5°C° 0 mm 2 m/s 742 mmHg 81%
    06:00 +5°C° 0 mm 2 m/s 743 mmHg 81%
    07:00 +5°C° 0 mm 2 m/s 743 mmHg 81%
    08:00 +6°C° 0 mm 2 m/s 743 mmHg 75%
    09:00 +7°C° 0 mm 2 m/s 743 mmHg 70%
    10:00 +8°C° 0 mm 2 m/s 744 mmHg 64%
    11:00 +8°C° 0 mm 2 m/s 744 mmHg 60%
    12:00 +9°C° 0 mm 2 m/s 744 mmHg 55%
    13:00 +9°C° 0 mm 2 m/s 743 mmHg 51%
    14:00 +8°C° 0 mm 2 m/s 744 mmHg 55%
    15:00 +7°C° 0 mm 2 m/s 744 mmHg 60%
    16:00 +7°C° 0 mm 2 m/s 744 mmHg 64%
    17:00 +6°C° 0 mm 2 m/s 744 mmHg 67%
    18:00 +5°C° 0 mm 2 m/s 745 mmHg 70%
    19:00 +4°C° 0 mm 2 m/s 745 mmHg 72%
    20:00 +4°C° 0 mm 2 m/s 745 mmHg 73%
    21:00 +5°C° 0 mm 1 m/s 745 mmHg 73%
    22:00 +4°C° 0 mm 1 m/s 746 mmHg 74%
    23:00 +4°C° 0 mm 1 m/s 746 mmHg 71%

    Après-demain, 12 Décembre, Mercredi

    Heure Température Précipitation Vent Pression Humidité
    00:00 +4°C° 0 mm 1 m/s 746 mmHg 69%
    01:00 +4°C° 0 mm 1 m/s 746 mmHg 67%
    02:00 +4°C° 0 mm 1 m/s 746 mmHg 64%
    03:00 +4°C° 0 mm 1 m/s 746 mmHg 62%
    04:00 +4°C° 0 mm 1 m/s 746 mmHg 59%
    05:00 +4°C° 0 mm 1 m/s 747 mmHg 58%
    06:00 +4°C° 0 mm 1 m/s 747 mmHg 57%
    07:00 +3°C° 0 mm 1 m/s 747 mmHg 56%
    08:00 +5°C° 0 mm 1 m/s 747 mmHg 49%
    09:00 +6°C° 0 mm 1 m/s 748 mmHg 43%
    10:00 +8°C° 0 mm 1 m/s 748 mmHg 36%
    11:00 +8°C° 0 mm 1 m/s 748 mmHg 34%
    12:00 +9°C° 0 mm 1 m/s 747 mmHg 31%
    13:00 +8°C° 0 mm 2 m/s 747 mmHg 29%
    14:00 +8°C° 0 mm 1 m/s 747 mmHg 33%
    15:00 +7°C° 0 mm 1 m/s 747 mmHg 37%
    16:00 +6°C° 0 mm 1 m/s 747 mmHg 41%
    17:00 +5°C° 0 mm 1 m/s 747 mmHg 41%
    18:00 +5°C° 0 mm 1 m/s 747 mmHg 41%
    19:00 +4°C° 0 mm 1 m/s 748 mmHg 41%
    20:00 +3°C° 0 mm 2 m/s 748 mmHg 41%
    21:00 +3°C° 0 mm 2 m/s 748 mmHg 40%
    22:00 +3°C° 0 mm 2 m/s 748 mmHg 40%
    23:00 +4°C° 0 mm 2 m/s 747 mmHg 39%

    13 Décembre, Jeudi

    Heure Température Précipitation Vent Pression Humidité
    00:00 +3°C° 0 mm 3 m/s 747 mmHg 39%
    01:00 +3°C° 0 mm 3 m/s 747 mmHg 38%
    02:00 +3°C° 0.1 mm 3 m/s 746 mmHg 39%
    03:00 +3°C° 0.1 mm 3 m/s 746 mmHg 40%
    04:00 +4°C° 0.1 mm 3 m/s 745 mmHg 41%
    05:00 +3°C° 0.2 mm 3 m/s 745 mmHg 50%
    06:00 +3°C° 0.2 mm 3 m/s 745 mmHg 58%
    07:00 +3°C° 0.2 mm 4 m/s 744 mmHg 67%
    08:00 +4°C° 0.1 mm 4 m/s 744 mmHg 68%
    09:00 +4°C° 0.1 mm 4 m/s 744 mmHg 69%
    10:00 +5°C° 0.1 mm 4 m/s 743 mmHg 70%
    11:00 +5°C° 0.2 mm 4 m/s 743 mmHg 70%
    12:00 +6°C° 0.2 mm 4 m/s 742 mmHg 71%
    13:00 +7°C° 0.2 mm 3 m/s 742 mmHg 72%
    14:00 +7°C° 0.3 mm 3 m/s 742 mmHg 75%
    15:00 +5°C° 0.3 mm 3 m/s 742 mmHg 78%
    16:00 +5°C° 0.3 mm 3 m/s 742 mmHg 80%
    17:00 +4°C° 0.3 mm 3 m/s 742 mmHg 81%
    18:00 +4°C° 0.3 mm 3 m/s 742 mmHg 82%
    19:00 +4°C° 0.3 mm 3 m/s 743 mmHg 83%
    20:00 +5°C° 0.1 mm 2 m/s 743 mmHg 84%
    21:00 +6°C° 0.1 mm 2 m/s 743 mmHg 84%
    22:00 +6°C° 0.1 mm 2 m/s 743 mmHg 85%
    23:00 +6°C° 0 mm 2 m/s 743 mmHg 86%

    14 Décembre, Vendredi

    Heure Température Précipitation Vent Pression Humidité
    00:00 +6°C° 0 mm 2 m/s 744 mmHg 87%
    01:00 +7°C° 0 mm 1 m/s 744 mmHg 88%
    02:00 +7°C° 0 mm 1 m/s 744 mmHg 88%
    03:00 +7°C° 0 mm 1 m/s 744 mmHg 89%
    04:00 +6°C° 0 mm 2 m/s 744 mmHg 89%
    05:00 +6°C° 0 mm 2 m/s 745 mmHg 88%
    06:00 +6°C° 0 mm 2 m/s 745 mmHg 88%
    07:00 +6°C° 0 mm 2 m/s 746 mmHg 87%
    08:00 +7°C° 0 mm 2 m/s 746 mmHg 84%
    09:00 +8°C° 0 mm 2 m/s 746 mmHg 82%
    10:00 +10°C° 0 mm 2 m/s 747 mmHg 79%
    11:00 +10°C° 0 mm 2 m/s 747 mmHg 77%
    12:00 +12°C° 0 mm 2 m/s 747 mmHg 75%
    13:00 +13°C° 0 mm 1 m/s 746 mmHg 72%
    14:00 +12°C° 0 mm 1 m/s 747 mmHg 75%
    15:00 +10°C° 0 mm 2 m/s 747 mmHg 78%
    16:00 +9°C° 0 mm 2 m/s 747 mmHg 81%
    17:00 +9°C° 0 mm 2 m/s 747 mmHg 81%
    18:00 +8°C° 0 mm 2 m/s 747 mmHg 82%
    19:00 +7°C° 0 mm 2 m/s 748 mmHg 83%
    20:00 +7°C° 0 mm 3 m/s 748 mmHg 83%
    21:00 +7°C° 0 mm 3 m/s 748 mmHg 83%
    22:00 +7°C° 0 mm 3 m/s 748 mmHg 83%
    23:00 +7°C° 0 mm 3 m/s 748 mmHg 83%

    15 Décembre, Samedi

    Heure Température Précipitation Vent Pression Humidité
    00:00 +7°C° 0 mm 3 m/s 748 mmHg 83%
    01:00 +7°C° 0 mm 3 m/s 748 mmHg 83%
    02:00 +7°C° 0.1 mm 3 m/s 748 mmHg 83%
    03:00 +7°C° 0.1 mm 3 m/s 748 mmHg 84%
    04:00 +7°C° 0.1 mm 3 m/s 748 mmHg 84%
    05:00 +8°C° 0.1 mm 3 m/s 748 mmHg 84%
    06:00 +8°C° 0.1 mm 3 m/s 748 mmHg 84%
    07:00 +8°C° 0.1 mm 3 m/s 748 mmHg 84%
    08:00 +8°C° 0 mm 3 m/s 748 mmHg 82%
    09:00 +9°C° 0 mm 3 m/s 749 mmHg 80%
    10:00 +10°C° 0 mm 3 m/s 749 mmHg 78%
    11:00 +11°C° 0.1 mm 3 m/s 748 mmHg 77%
    12:00 +11°C° 0.1 mm 3 m/s 748 mmHg 76%
    13:00 +12°C° 0.1 mm 3 m/s 748 mmHg 76%
    14:00 +11°C° 0.2 mm 3 m/s 748 mmHg 79%
    15:00 +10°C° 0.2 mm 3 m/s 748 mmHg 81%
    16:00 +10°C° 0.2 mm 3 m/s 748 mmHg 84%
    17:00 +10°C° 0.1 mm 3 m/s 748 mmHg 84%
    18:00 +9°C° 0.1 mm 3 m/s 748 mmHg 84%
    19:00 +9°C° 0.1 mm 3 m/s 748 mmHg 84%
    20:00 +9°C° 0.1 mm 3 m/s 748 mmHg 84%
    21:00 +9°C° 0.1 mm 3 m/s 748 mmHg 84%
    22:00 +9°C° 0.1 mm 3 m/s 748 mmHg 85%
    23:00 +9°C° 0.1 mm 3 m/s 748 mmHg 85%
    Voir plus